Weather History for Air Force Academy, CO

Change the Weather History Date:

Monday, November 26, 2012

  Actual Average Record
Temperature  
Mean Temperature 28 °F -  
Max Temperature 36 °F 44 °F 57 °F (2005)
Min Temperature 21 °F 22 °F 1 °F (2002)
Degree Days  
Heating Degree Days 36    
Moisture  
Dew Point 22 °F    
Average Humidity 74    
Maximum Humidity 89    
Minimum Humidity 57    
Precipitation  
Precipitation 0.00 in - - ()
Sea Level Pressure  
Sea Level Pressure 30.25 in    
Wind  
Wind Speed 13 mph (NNE)    
Max Wind Speed 28 mph    
Max Gust Speed 31 mph    
Visibility 10 miles    
Events      
Averages and records for this station are not official NWS values.
T = Trace of Precipitation, MM = Missing Value Source: NWS Daily Summary

Daily Weather History Graph

Daily Weather History Graph

Search for Another Location

Airport:

Trip Planner

Search our weather history database for the weather conditions in past years. The results will help you decide how hot, cold, wet, or windy it might be!

Date:

Astronomy

Nov. 26, 2012 Rise Set
Actual Time 6:54 AM MST 4:38 PM MST
Civil Twilight 6:25 AM MST 5:07 PM MST
Nautical Twilight 5:52 AM MST 5:40 PM MST
Astronomical Twilight 5:20 AM MST 6:12 PM MST
Moon 3:32 PM MST (11/26) 5:07 AM MST (11/26)
Length of Visible Light 10h 42m
Length of Day
9h 44m
Waxing Gibbous, 97% of the Moon is Illuminated
Nov 26
Waxing Gibbous
Nov 28
Full
Dec 6
Last Quarter
Dec 13
New
Dec 19
First Quarter

Hourly Weather History & Observations

Time (MST) Temp. Windchill Dew Point Humidity Pressure Visibility Wind Dir Wind Speed Gust Speed Precip Events Conditions
12:58 AM 27.0 °F 16.7 °F 14.2 °F 59% 29.96 in 10.0 mi North 11.5 mph - N/A   Clear
1:58 AM 28.0 °F - 14.5 °F 57% 30.00 in 10.0 mi Calm Calm - N/A   Clear
2:58 AM 28.8 °F 25.0 °F 15.3 °F 57% 29.99 in 10.0 mi East 3.5 mph - N/A   Clear
3:58 AM 24.4 °F 18.6 °F 13.6 °F 64% 30.03 in 10.0 mi NW 4.6 mph - N/A   Clear
4:58 AM 21.7 °F 9.6 °F 14.2 °F 73% 30.09 in 10.0 mi North 12.7 mph - N/A   Clear
5:58 AM 24.4 °F 11.9 °F 20.5 °F 85% 30.17 in 10.0 mi NNW 15.0 mph - N/A   Clear
6:55 AM 24.3 °F 10.8 °F 21.4 °F 89% 30.24 in 10.0 mi North 17.3 mph - N/A   Clear
7:15 AM 26.6 °F 11.7 °F 23.0 °F 86% 30.25 in 10.0 mi North 24.2 mph 29.9 mph N/A   Mostly Cloudy
7:55 AM 27.1 °F 11.6 °F 23.7 °F 87% 30.29 in 10.0 mi North 27.6 mph 31.1 mph N/A   Overcast
8:15 AM 28.4 °F 14.7 °F 23.0 °F 80% 30.21 in 10.0 mi North 21.9 mph - N/A   Overcast
8:45 AM 28.4 °F 15.4 °F 23.0 °F 80% 30.23 in 10.0 mi North 19.6 mph 25.3 mph N/A   Overcast
8:58 AM 28.9 °F 15.4 °F 23.4 °F 80% 30.29 in 10.0 mi North 21.9 mph 31.1 mph N/A   Overcast
9:18 AM 28.4 °F 15.1 °F 23.0 °F 80% 30.24 in 10.0 mi North 20.7 mph 29.9 mph N/A   Overcast
9:27 AM 28.4 °F 14.4 °F 23.0 °F 80% 30.25 in 10.0 mi North 23.0 mph 31.1 mph N/A   Overcast
9:32 AM 28.4 °F 14.4 °F 23.0 °F 80% 30.25 in 10.0 mi North 23.0 mph 31.1 mph N/A   Overcast
9:36 AM 30.2 °F 17.1 °F 23.0 °F 75% 30.26 in 10.0 mi North 21.9 mph 29.9 mph N/A   Overcast
9:58 AM 30.0 °F 16.6 °F 22.6 °F 74% 30.33 in 10.0 mi North 23.0 mph 27.6 mph 0.00 in   Overcast
10:48 AM 32.0 °F 20.8 °F 23.0 °F 69% 30.27 in 10.0 mi North 17.3 mph 21.9 mph N/A   Scattered Clouds
10:53 AM 32.0 °F 20.8 °F 23.0 °F 69% 30.26 in 10.0 mi North 17.3 mph - N/A   Mostly Cloudy
10:58 AM 32.9 °F 22.8 °F 23.0 °F 67% 30.31 in 10.0 mi North 15.0 mph - N/A   Mostly Cloudy
11:18 AM 32.0 °F 21.2 °F 23.0 °F 69% 30.25 in 10.0 mi North 16.1 mph - N/A   Mostly Cloudy
11:23 AM 32.0 °F 21.6 °F 23.0 °F 69% 30.25 in 10.0 mi North 15.0 mph - N/A   Mostly Cloudy
11:58 AM 33.4 °F 25.4 °F 22.6 °F 65% 30.32 in 10.0 mi North 10.4 mph 16.1 mph N/A   Scattered Clouds
12:23 PM 33.8 °F 27.0 °F 23.0 °F 65% 30.25 in 10.0 mi North 8.1 mph - N/A   Mostly Cloudy
12:38 PM 32.0 °F 25.6 °F 23.0 °F 69% 30.25 in 10.0 mi NNE 6.9 mph - N/A   Mostly Cloudy
12:58 PM 32.7 °F 26.4 °F 22.3 °F 65% 30.34 in 10.0 mi North 6.9 mph - N/A   Mostly Cloudy
1:43 PM 32.0 °F - 23.0 °F 69% 30.23 in 10.0 mi Calm Calm - N/A   Overcast
1:58 PM 34.5 °F 30.4 °F 22.3 °F 61% 30.29 in 10.0 mi South 4.6 mph - N/A   Mostly Cloudy
2:08 PM 35.6 °F 30.7 °F 23.0 °F 60% 30.22 in 10.0 mi Variable 5.8 mph - N/A   Overcast
2:58 PM 36.0 °F 26.0 °F 23.2 °F 60% 30.29 in 10.0 mi South 17.3 mph - N/A   Overcast
3:43 PM 32.0 °F 20.1 °F 23.0 °F 69% 30.24 in 10.0 mi South 19.6 mph - N/A   Overcast
3:58 PM 32.0 °F 20.8 °F 23.0 °F 69% 30.35 in 10.0 mi SSE 17.3 mph - N/A   Mostly Cloudy
4:03 PM 32.0 °F 20.8 °F 23.0 °F 69% 30.23 in 10.0 mi SSE 17.3 mph - N/A   Mostly Cloudy
4:58 PM 30.4 °F 19.5 °F 22.5 °F 72% 30.36 in 10.0 mi SSE 15.0 mph - N/A   Overcast
5:33 PM 30.2 °F 19.3 °F 23.0 °F 75% 30.24 in 10.0 mi SSE 15.0 mph - N/A   Overcast
5:58 PM 28.9 °F 18.2 °F 22.1 °F 76% 30.36 in 10.0 mi SSE 13.8 mph - N/A   Overcast
6:58 PM 27.9 °F 18.4 °F 21.9 °F 78% 30.25 in 10.0 mi SSE 10.4 mph - N/A   Overcast
7:58 PM 26.8 °F 18.5 °F 21.4 °F 80% 30.25 in 10.0 mi SSE 8.1 mph - N/A   Overcast
8:28 PM 26.6 °F 19.1 °F 21.2 °F 80% 30.25 in 10.0 mi South 6.9 mph - N/A   Overcast
8:58 PM 25.7 °F 17.1 °F 21.2 °F 83% 30.39 in 10.0 mi South 8.1 mph - N/A   Overcast
9:58 PM 25.5 °F 18.7 °F 21.4 °F 84% 30.38 in 10.0 mi SSW 5.8 mph - N/A   Overcast
10:58 PM 24.8 °F 17.9 °F 21.0 °F 86% 30.37 in 10.0 mi SSE 5.8 mph - N/A   Overcast
11:38 PM 24.8 °F 20.5 °F 21.2 °F 86% 30.26 in 10.0 mi South 3.5 mph - N/A   Overcast
11:58 PM 24.3 °F 19.9 °F 21.0 °F 87% 30.37 in 10.0 mi South 3.5 mph - N/A   Overcast